Find Starlink 11533

NORAD ID: 62836 Int'l Des: 2025-019 Owner: SPXS Country: US Constellation: starlink operational
LEOCIRCULAR

实时位置

正在加载3D地球...

关于 Starlink 11533

正在加载描述...

即将过境

Passes for default location (London). Set your location on the main map for personalized predictions.

高度历史

Loading altitude history...

两行轨道根数

1 62836U 25019H 26120.66142392 .00284864 00000-0 21426-2 0 9995
2 62836 43.0020 352.7956 0002029 260.0506 100.0132 15.70902803 72051
Epoch: Apr 30, 2026 • Age: 23 hours

当前状态

高度 354.5 km
速度 7.70 km/s
星下点 16.65°N, 76.9°W
发射日期 Jan 27, 2025
运行时间 1.2 years
类型 internet

技术详情

分类 Payload
质量 960.00 kg
干质量 910.00 kg
总质量 960.00 kg
长度 0.30 m
直径 4.10 m
跨度 29.00 m
形状 Box + pan
制造商 SPXS
平台类型 Starlink V2MD
阶段状态 In Orbit
所有者/国家 SPXS/US

Most Searched